Time,TemperatureF,DewpointF,PressureIn,WindDirection,WindDirectionDegrees,WindSpeedMPH,WindSpeedGustMPH,Humidity,HourlyPrecipIn,Conditions,Clouds,dailyrainin,SoftwareType,DateUTC
2013-03-17 00:03:00,30.0,25.0,30.07,NW,309,5.0,10.0,82,0.00,,,0.00,,2013-03-17 04:03:00,
2013-03-17 00:13:00,30.0,25.0,30.07,NW,309,5.0,10.0,82,0.00,,,0.00,,2013-03-17 04:13:00,
2013-03-17 00:23:00,30.0,25.0,30.06,WNW,300,5.0,11.0,81,0.00,,,0.00,,2013-03-17 04:23:00,
2013-03-17 00:32:00,30.0,25.0,30.06,NNW,340,5.0,11.0,81,0.00,,,0.00,,2013-03-17 04:32:00,
2013-03-17 00:43:00,30.0,25.0,30.06,NNW,340,5.0,11.0,81,0.00,,,0.00,,2013-03-17 04:43:00,
2013-03-17 00:53:00,30.0,25.0,30.06,NNW,327,7.0,11.0,81,0.00,,,0.00,,2013-03-17 04:53:00,
2013-03-17 01:03:00,30.0,25.0,30.06,North,355,7.0,12.0,81,0.00,,,0.00,,2013-03-17 05:03:00,
2013-03-17 01:12:00,30.0,25.0,30.06,North,355,7.0,12.0,81,0.00,,,0.00,,2013-03-17 05:12:00,
2013-03-17 01:22:00,30.0,25.0,30.07,NW,319,8.0,13.0,81,0.00,,,0.00,,2013-03-17 05:22:00,
2013-03-17 01:32:00,29.0,23.0,30.07,NW,311,8.0,14.0,79,0.00,,,0.00,,2013-03-17 05:32:00,
2013-03-17 01:42:00,29.0,23.0,30.07,NW,311,8.0,14.0,79,0.00,,,0.00,,2013-03-17 05:42:00,
2013-03-17 01:52:00,29.0,24.0,30.07,NW,317,7.0,13.0,80,0.00,,,0.00,,2013-03-17 05:52:00,
2013-03-17 02:02:00,29.0,24.0,30.08,NNW,334,7.0,15.0,80,0.00,,,0.00,,2013-03-17 06:02:00,
2013-03-17 02:12:00,29.0,24.0,30.08,NNW,334,7.0,15.0,80,0.00,,,0.00,,2013-03-17 06:12:00,
2013-03-17 02:22:00,29.0,24.0,30.08,NW,325,6.0,10.0,81,0.00,,,0.00,,2013-03-17 06:22:00,
2013-03-17 02:32:00,29.0,24.0,30.08,North,5,6.0,12.0,81,0.00,,,0.00,,2013-03-17 06:32:00,
2013-03-17 02:42:00,29.0,24.0,30.08,North,5,6.0,12.0,81,0.00,,,0.00,,2013-03-17 06:42:00,
2013-03-17 02:52:00,29.0,24.0,30.08,North,5,7.0,14.0,80,0.00,,,0.00,,2013-03-17 06:52:00,
2013-03-17 03:02:00,29.0,24.0,30.08,NNW,336,6.0,10.0,80,0.00,,,0.00,,2013-03-17 07:02:00,
2013-03-17 03:12:00,29.0,24.0,30.08,NNW,336,6.0,10.0,80,0.00,,,0.00,,2013-03-17 07:12:00,
2013-03-17 03:22:00,29.0,24.0,30.08,NNE,15,4.0,9.0,80,0.00,,,0.00,,2013-03-17 07:22:00,
2013-03-17 03:32:00,29.0,24.0,30.08,NNW,327,4.0,8.0,80,0.00,,,0.00,,2013-03-17 07:32:00,
2013-03-17 03:42:00,29.0,24.0,30.08,NNW,327,4.0,8.0,80,0.00,,,0.00,,2013-03-17 07:42:00,
2013-03-17 03:52:00,29.0,24.0,30.08,NNE,26,4.0,6.0,80,0.00,,,0.00,,2013-03-17 07:52:00,
2013-03-17 04:03:00,29.0,24.0,30.08,NNE,13,2.0,7.0,80,0.00,,,0.00,,2013-03-17 08:03:00,
2013-03-17 04:13:00,29.0,24.0,30.08,NNE,24,2.0,5.0,80,0.00,,,0.00,,2013-03-17 08:13:00,
2013-03-17 04:22:00,29.0,24.0,30.08,NNE,24,2.0,5.0,80,0.00,,,0.00,,2013-03-17 08:22:00,
2013-03-17 04:32:00,29.0,24.0,30.08,North,5,1.0,5.0,80,0.00,,,0.00,,2013-03-17 08:32:00,
2013-03-17 04:42:00,29.0,24.0,30.08,North,5,1.0,5.0,80,0.00,,,0.00,,2013-03-17 08:42:00,
2013-03-17 04:52:00,29.0,24.0,30.08,North,360,4.0,6.0,81,0.00,,,0.00,,2013-03-17 08:52:00,
2013-03-17 05:03:00,29.0,24.0,30.07,NE,44,3.0,7.0,81,0.00,,,0.00,,2013-03-17 09:03:00,
2013-03-17 05:12:00,29.0,24.0,30.07,NE,44,3.0,7.0,81,0.00,,,0.00,,2013-03-17 09:12:00,
2013-03-17 05:22:00,29.0,24.0,30.08,NNE,26,3.0,6.0,81,0.00,,,0.00,,2013-03-17 09:22:00,
2013-03-17 05:32:00,29.0,24.0,30.08,NNE,21,1.0,4.0,81,0.00,,,0.00,,2013-03-17 09:32:00,
2013-03-17 05:43:00,29.0,24.0,30.08,NNE,21,1.0,4.0,81,0.00,,,0.00,,2013-03-17 09:43:00,
2013-03-17 05:53:00,29.0,24.0,30.08,NE,41,2.0,5.0,81,0.00,,,0.00,,2013-03-17 09:53:00,
2013-03-17 06:03:00,29.0,24.0,30.09,NNE,15,3.0,6.0,81,0.00,,,0.00,,2013-03-17 10:03:00,
2013-03-17 06:13:00,29.0,24.0,30.09,NNE,15,3.0,6.0,81,0.00,,,0.00,,2013-03-17 10:13:00,
2013-03-17 06:23:00,29.0,24.0,30.09,NE,39,3.0,6.0,80,0.00,,,0.00,,2013-03-17 10:23:00,
2013-03-17 06:33:00,29.0,24.0,30.09,NE,51,2.0,4.0,81,0.00,,,0.00,,2013-03-17 10:33:00,
2013-03-17 06:42:00,29.0,24.0,30.09,NE,51,2.0,4.0,81,0.00,,,0.00,,2013-03-17 10:42:00,
2013-03-17 06:52:00,29.0,24.0,30.10,NE,52,3.0,5.0,81,0.00,,,0.00,,2013-03-17 10:52:00,
2013-03-17 07:02:00,29.0,24.0,30.11,ENE,67,2.0,6.0,81,0.00,,,0.00,,2013-03-17 11:02:00,
2013-03-17 07:12:00,29.0,24.0,30.11,ENE,67,2.0,6.0,81,0.00,,,0.00,,2013-03-17 11:12:00,
2013-03-17 07:22:00,29.0,24.0,30.11,ENE,67,1.0,4.0,81,0.00,,,0.00,,2013-03-17 11:22:00,
2013-03-17 07:32:00,29.0,24.0,30.12,ENE,59,2.0,7.0,81,0.00,,,0.00,,2013-03-17 11:32:00,
2013-03-17 07:42:00,29.0,24.0,30.12,ENE,59,2.0,7.0,81,0.00,,,0.00,,2013-03-17 11:42:00,
2013-03-17 07:52:00,29.0,24.0,30.13,NE,40,1.0,5.0,80,0.00,,,0.00,,2013-03-17 11:52:00,
2013-03-17 08:02:00,29.0,24.0,30.14,ENE,60,2.0,4.0,80,0.00,,,0.00,,2013-03-17 12:02:00,
2013-03-17 08:12:00,29.0,24.0,30.14,ENE,60,2.0,4.0,80,0.00,,,0.00,,2013-03-17 12:12:00,
2013-03-17 08:22:00,29.0,24.0,30.15,NE,56,2.0,4.0,80,0.00,,,0.00,,2013-03-17 12:22:00,
2013-03-17 08:33:00,30.0,24.0,30.16,NE,47,1.0,6.0,79,0.00,,,0.00,,2013-03-17 12:33:00,
2013-03-17 08:43:00,30.0,24.0,30.16,NE,47,1.0,6.0,79,0.00,,,0.00,,2013-03-17 12:43:00,
2013-03-17 08:52:00,30.0,24.0,30.16,ENE,72,0.0,3.0,79,0.00,,,0.00,,2013-03-17 12:52:00,
2013-03-17 09:02:00,30.0,24.0,30.17,NNE,22,2.0,5.0,78,0.00,,,0.00,,2013-03-17 13:02:00,
2013-03-17 09:13:00,30.0,24.0,30.17,NNE,22,2.0,5.0,78,0.00,,,0.00,,2013-03-17 13:13:00,
2013-03-17 09:22:00,30.0,24.0,30.17,NE,42,2.0,4.0,79,0.00,,,0.00,,2013-03-17 13:22:00,
2013-03-17 09:32:00,30.0,24.0,30.17,NNE,31,2.0,6.0,79,0.00,,,0.00,,2013-03-17 13:32:00,
2013-03-17 09:42:00,30.0,24.0,30.17,NNE,31,2.0,6.0,79,0.00,,,0.00,,2013-03-17 13:42:00,
2013-03-17 09:52:00,30.0,24.0,30.17,East,86,4.0,10.0,77,0.00,,,0.00,,2013-03-17 13:52:00,
2013-03-17 10:02:00,30.0,24.0,30.18,North,5,4.0,10.0,77,0.00,,,0.00,,2013-03-17 14:02:00,
2013-03-17 10:12:00,30.0,24.0,30.18,North,5,4.0,10.0,77,0.00,,,0.00,,2013-03-17 14:12:00,
2013-03-17 10:22:00,30.0,24.0,30.17,ENE,61,4.0,9.0,78,0.00,,,0.00,,2013-03-17 14:22:00,
2013-03-17 10:32:00,30.0,24.0,30.17,NE,49,6.0,11.0,78,0.00,,,0.00,,2013-03-17 14:32:00,
2013-03-17 10:42:00,30.0,24.0,30.17,NE,49,6.0,11.0,78,0.00,,,0.00,,2013-03-17 14:42:00,
2013-03-17 10:53:00,30.0,24.0,30.17,ENE,74,7.0,12.0,78,0.00,,,0.00,,2013-03-17 14:53:00,
2013-03-17 11:02:00,30.0,23.0,30.18,NE,55,8.0,11.0,76,0.00,,,0.00,,2013-03-17 15:02:00,
2013-03-17 11:12:00,30.0,23.0,30.18,NE,55,8.0,11.0,76,0.00,,,0.00,,2013-03-17 15:12:00,
2013-03-17 11:23:00,30.0,24.0,30.17,East,84,6.0,10.0,77,0.00,,,0.00,,2013-03-17 15:23:00,
2013-03-17 11:33:00,30.0,23.0,30.17,ENE,70,10.0,15.0,75,0.00,,,0.00,,2013-03-17 15:33:00,
2013-03-17 11:43:00,30.0,23.0,30.17,ENE,70,10.0,15.0,75,0.00,,,0.00,,2013-03-17 15:43:00,
2013-03-17 11:53:00,30.0,23.0,30.17,East,82,9.0,13.0,75,0.00,,,0.00,,2013-03-17 15:53:00,
2013-03-17 12:03:00,30.0,23.0,30.18,ENE,71,9.0,16.0,74,0.00,,,0.00,,2013-03-17 16:03:00,
2013-03-17 12:13:00,30.0,23.0,30.18,ENE,71,9.0,16.0,74,0.00,,,0.00,,2013-03-17 16:13:00,
2013-03-17 12:23:00,30.0,22.0,30.19,East,88,10.0,15.0,71,0.00,,,0.00,,2013-03-17 16:23:00,
2013-03-17 12:33:00,30.0,21.0,30.19,ESE,109,7.0,14.0,69,0.00,,,0.00,,2013-03-17 16:33:00,
2013-03-17 12:43:00,30.0,21.0,30.19,ESE,109,7.0,14.0,69,0.00,,,0.00,,2013-03-17 16:43:00,
2013-03-17 12:52:00,31.0,21.0,30.18,ESE,103,9.0,16.0,67,0.00,,,0.00,,2013-03-17 16:52:00,
2013-03-17 13:02:00,31.0,21.0,30.18,East,100,8.0,16.0,66,0.00,,,0.00,,2013-03-17 17:02:00,
2013-03-17 13:12:00,31.0,21.0,30.18,East,100,8.0,16.0,66,0.00,,,0.00,,2013-03-17 17:12:00,
2013-03-17 13:22:00,31.0,21.0,30.17,ENE,69,8.0,18.0,66,0.00,,,0.00,,2013-03-17 17:22:00,
2013-03-17 13:33:00,31.0,21.0,30.18,ESE,107,11.0,16.0,67,0.00,,,0.00,,2013-03-17 17:33:00,
2013-03-17 13:42:00,31.0,21.0,30.18,ESE,107,11.0,16.0,67,0.00,,,0.00,,2013-03-17 17:42:00,
2013-03-17 13:53:00,31.0,21.0,30.18,NE,34,6.0,16.0,66,0.00,,,0.00,,2013-03-17 17:53:00,
2013-03-17 14:02:00,31.0,21.0,30.18,East,91,11.0,17.0,66,0.00,,,0.00,,2013-03-17 18:02:00,
2013-03-17 14:12:00,31.0,21.0,30.18,East,91,11.0,17.0,66,0.00,,,0.00,,2013-03-17 18:12:00,
2013-03-17 14:22:00,32.0,21.0,30.17,ENE,66,7.0,16.0,64,0.00,,,0.00,,2013-03-17 18:22:00,
2013-03-17 14:32:00,32.0,21.0,30.17,East,96,6.0,15.0,64,0.00,,,0.00,,2013-03-17 18:32:00,
2013-03-17 14:42:00,32.0,21.0,30.17,East,96,6.0,15.0,64,0.00,,,0.00,,2013-03-17 18:42:00,
2013-03-17 14:52:00,32.0,21.0,30.17,ESE,111,7.0,16.0,64,0.00,,,0.00,,2013-03-17 18:52:00,
2013-03-17 15:02:00,33.0,22.0,30.16,ENE,78,11.0,14.0,63,0.00,,,0.00,,2013-03-17 19:02:00,
2013-03-17 15:12:00,33.0,22.0,30.16,ENE,78,11.0,14.0,63,0.00,,,0.00,,2013-03-17 19:12:00,
2013-03-17 15:22:00,33.0,22.0,30.15,East,86,6.0,11.0,63,0.00,,,0.00,,2013-03-17 19:22:00,
2013-03-17 15:33:00,34.0,21.0,30.14,ENE,64,10.0,19.0,59,0.00,,,0.00,,2013-03-17 19:33:00,
2013-03-17 15:42:00,34.0,21.0,30.14,ENE,64,10.0,19.0,59,0.00,,,0.00,,2013-03-17 19:42:00,
2013-03-17 15:53:00,34.0,22.0,30.14,NE,51,10.0,16.0,60,0.00,,,0.00,,2013-03-17 19:53:00,
2013-03-17 16:02:00,34.0,22.0,30.13,ENE,57,10.0,18.0,60,0.00,,,0.00,,2013-03-17 20:02:00,
2013-03-17 16:12:00,34.0,22.0,30.13,ENE,57,10.0,18.0,60,0.00,,,0.00,,2013-03-17 20:12:00,
2013-03-17 16:22:00,34.0,22.0,30.13,East,92,10.0,16.0,61,0.00,,,0.00,,2013-03-17 20:22:00,
2013-03-17 16:33:00,35.0,23.0,30.13,ENE,74,12.0,21.0,60,0.00,,,0.00,,2013-03-17 20:33:00,
2013-03-17 16:42:00,35.0,23.0,30.13,ENE,74,12.0,21.0,60,0.00,,,0.00,,2013-03-17 20:42:00,
2013-03-17 16:52:00,35.0,22.0,30.13,SE,134,11.0,16.0,58,0.00,,,0.00,,2013-03-17 20:52:00,
2013-03-17 17:03:00,35.0,23.0,30.12,SSE,159,12.0,18.0,61,0.00,,,0.00,,2013-03-17 21:03:00,
2013-03-17 17:12:00,35.0,23.0,30.12,SSE,159,12.0,18.0,61,0.00,,,0.00,,2013-03-17 21:12:00,
2013-03-17 17:22:00,35.0,23.0,30.11,ESE,104,11.0,18.0,61,0.00,,,0.00,,2013-03-17 21:22:00,
2013-03-17 17:33:00,35.0,24.0,30.11,ESE,108,11.0,17.0,63,0.00,,,0.00,,2013-03-17 21:33:00,
2013-03-17 17:43:00,35.0,24.0,30.11,ESE,108,11.0,17.0,63,0.00,,,0.00,,2013-03-17 21:43:00,
2013-03-17 17:52:00,34.0,23.0,30.10,SE,130,12.0,18.0,65,0.00,,,0.00,,2013-03-17 21:52:00,
2013-03-17 18:03:00,34.0,23.0,30.09,ENE,59,14.0,19.0,65,0.01,,,0.01,,2013-03-17 22:03:00,
2013-03-17 18:13:00,34.0,24.0,30.09,East,84,12.0,19.0,67,0.01,,,0.01,,2013-03-17 22:13:00,
2013-03-17 18:23:00,34.0,24.0,30.09,East,84,12.0,19.0,67,0.01,,,0.01,,2013-03-17 22:23:00,
2013-03-17 18:33:00,33.0,24.0,30.09,East,95,10.0,16.0,68,0.01,,,0.01,,2013-03-17 22:33:00,
2013-03-17 18:42:00,33.0,24.0,30.09,East,95,10.0,16.0,68,0.01,,,0.01,,2013-03-17 22:42:00,
2013-03-17 18:53:00,33.0,24.0,30.10,ESE,113,12.0,18.0,68,0.01,,,0.01,,2013-03-17 22:53:00,
2013-03-17 19:03:00,32.0,23.0,30.10,ESE,123,11.0,17.0,69,0.00,,,0.01,,2013-03-17 23:03:00,
2013-03-17 19:12:00,32.0,23.0,30.10,ESE,123,11.0,17.0,69,0.00,,,0.01,,2013-03-17 23:12:00,
2013-03-17 19:22:00,32.0,24.0,30.11,East,89,11.0,19.0,71,0.00,,,0.01,,2013-03-17 23:22:00,
2013-03-17 19:33:00,31.0,23.0,30.11,East,99,9.0,15.0,71,0.00,,,0.01,,2013-03-17 23:33:00,
2013-03-17 19:42:00,31.0,23.0,30.11,East,99,9.0,15.0,71,0.00,,,0.01,,2013-03-17 23:42:00,
2013-03-17 19:53:00,31.0,23.0,30.12,ESE,109,9.0,16.0,71,0.00,,,0.01,,2013-03-17 23:53:00,
2013-03-17 20:03:00,31.0,23.0,30.13,East,95,6.0,13.0,72,0.00,,,0.01,,2013-03-18 00:03:00,
2013-03-17 20:12:00,31.0,23.0,30.13,East,95,6.0,13.0,72,0.00,,,0.01,,2013-03-18 00:12:00,
2013-03-17 20:22:00,31.0,23.0,30.13,ESE,106,10.0,16.0,72,0.00,,,0.01,,2013-03-18 00:22:00,
2013-03-17 20:33:00,30.0,22.0,30.12,East,91,12.0,17.0,72,0.00,,,0.01,,2013-03-18 00:33:00,
2013-03-17 20:42:00,30.0,22.0,30.12,East,91,12.0,17.0,72,0.00,,,0.01,,2013-03-18 00:42:00,
2013-03-17 20:53:00,30.0,23.0,30.12,ENE,65,9.0,16.0,74,0.00,,,0.01,,2013-03-18 00:53:00,
2013-03-17 21:02:00,30.0,23.0,30.12,ESE,113,9.0,19.0,74,0.00,,,0.01,,2013-03-18 01:02:00,
2013-03-17 21:12:00,30.0,23.0,30.12,ESE,113,9.0,19.0,74,0.00,,,0.01,,2013-03-18 01:12:00,
2013-03-17 21:22:00,30.0,23.0,30.11,ESE,108,15.0,23.0,74,0.00,,,0.01,,2013-03-18 01:22:00,
2013-03-17 21:32:00,30.0,23.0,30.11,East,93,13.0,21.0,74,0.00,,,0.01,,2013-03-18 01:32:00,
2013-03-17 21:42:00,30.0,23.0,30.11,East,93,13.0,21.0,74,0.00,,,0.01,,2013-03-18 01:42:00,
2013-03-17 21:52:00,30.0,23.0,30.11,East,86,14.0,25.0,75,0.00,,,0.01,,2013-03-18 01:52:00,
2013-03-17 22:02:00,29.0,22.0,30.10,ESE,107,15.0,22.0,75,0.00,,,0.01,,2013-03-18 02:02:00,
2013-03-17 22:12:00,29.0,22.0,30.10,ESE,107,15.0,22.0,75,0.00,,,0.01,,2013-03-18 02:12:00,
2013-03-17 22:22:00,29.0,22.0,30.09,NE,55,11.0,19.0,76,0.00,,,0.01,,2013-03-18 02:22:00,
2013-03-17 22:32:00,29.0,22.0,30.08,ESE,107,17.0,24.0,76,0.00,,,0.01,,2013-03-18 02:32:00,
2013-03-17 22:42:00,29.0,22.0,30.08,ESE,107,17.0,24.0,76,0.00,,,0.01,,2013-03-18 02:42:00,
2013-03-17 22:52:00,29.0,23.0,30.08,ESE,105,10.0,21.0,77,0.00,,,0.01,,2013-03-18 02:52:00,
2013-03-17 23:03:00,29.0,23.0,30.08,ESE,111,11.0,21.0,77,0.00,,,0.01,,2013-03-18 03:03:00,
2013-03-17 23:12:00,29.0,23.0,30.08,ESE,111,11.0,21.0,77,0.00,,,0.01,,2013-03-18 03:12:00,
2013-03-17 23:22:00,29.0,23.0,30.07,East,94,13.0,21.0,78,0.00,,,0.01,,2013-03-18 03:22:00,
2013-03-17 23:33:00,28.0,22.0,30.07,East,92,9.0,17.0,78,0.00,,,0.01,,2013-03-18 03:33:00,
2013-03-17 23:42:00,28.0,22.0,30.07,East,92,9.0,17.0,78,0.00,,,0.01,,2013-03-18 03:42:00,
2013-03-17 23:53:00,28.0,22.0,30.06,NE,55,9.0,18.0,78,0.00,,,0.01,,2013-03-18 03:53:00,